Terminal Aerodrome Forecast
Issued by NWS

Home | Current Version | Previous Version | Graphics & Text | Print | Product List | Glossary On
Versions: 1 2 3 4 5 6 7 8 9 10 11 12 13 14 15 16 17 18 19 20 21 22 23 24 25
000
FTUS42 KMHX 171000 AAE
TAFISO
TAF AMD
KISO 171027Z 1710/1806 02005KT P6SM SCT015 SCT025 BKN035
     FM171300 04005KT P6SM VCSH OVC050
     FM171900 04005KT P6SM VCSH BKN050
      AMD LTD TO CLD VIS AND WIND=

USA.gov is the U.S. government's official web portal to all federal, state and local government web resources and services.